Showing default

COSMOS 1803, 17177

Orbit data source: Space-Track

COSMOS 1803, 17177 is a payload satellite owned by VTS SA (CIS) in LEO that was launched on Tue, 02 Dec 1986 UTC via a TSIKLON-3 launch vehicle from the Plesetsk Missile And Space Complex (PKMTR). Payload-class satellites include a variety of spacecraft equipped with specific instruments for various scientific and technological missions. These include communications satellites like Starlink; space stations such as the ISS; scientific satellites like the Hubble; Earth observation satellites from companies like Planet Labs, Umbra, and HawkEye 360; GPS; miniature CubeSats for education and research; and military/defense satellites.

Loading next visibility...
Identifier
17177, 1986-094A
Orbit
LEO
Country
Flag of CISCIS
Related business
Manufacturer
NPO PM
Mission
Defense Geodetic
Bus & Motor
KAUR-1 11F666, Unknown motor
Mass
1,552 kg wet, 1,552 kg dry
Launch date (UTC)
1986-12-02 (39 years ago)
Launch vehicle
TSIKLON-3
Launch site
Plesetsk Missile And Space Complex (PKMTR)
Object type
Payload
Rocket body
Debris
Shape & HBR
Cyl, 2.9 m
Radar Cross Section
13.195 m², Large (>1 m²)

Expand to show TLE details & history
Last TLE update: 20 hours ago

TLE from 20 hours ago
0 COSMOS 1803
1 17177U 86094A   25260.06971919  .00000005  00000-0 -33943-4 0  9999
2 17177  82.6107 177.6737 0003190 338.2656  32.6567 12.41549643758067
Epoch: 2025-09-17T01:40Z
TLE epoch observation values (Epoch: 2025-09-17T01:40:23.737Z)
Latitude
10.80385°
Longitude
157.73502°
Altitude
1,499.88 km
Speed
7.116 km/s
True Right ascension
11h 56m 20s
True Declination
10° 44' 48"
Sunlit
Object was in daylight at epoch
Visualization orbit readout
Latitude
Unknown
Longitude
Unknown
Altitude
Unknown
Speed
Unknown
Apparent Right ascension
Unknown
Apparent Declination
Unknown
Sunlit
N/A
Visualization observer readout
Local Sidereal Time
14:31:41
Azimuth
Unknown
Elevation
Unknown
Doppler factor
Unknown
Orbital elements
Apogee altitude
1,499.902 km
Perigee altitude
1,494.878 km
Semi-major axis
7,875.527 km
Eccentricity
0.00032
Inclination
82.6107°
RAAN
177.6737°
Arg. of periapsis
338.2656°
True anomaly
32.67643°
Mean anomaly
32.6567°
Eccentric anomaly
32.66657°
Mean motion
3.10544 °/min
Orbital period
115.93 mins
BSTAR
-0.000033943
Loading maneuver chart data...
Computing Atmospheric mass density...
Loading historical data...
Loading historical data...
Loading historical data...
Loading historical data...
Loading historical data...
Loading historical data...
Loading historical data...
Other satellites on launch #94 in the year 1986 (1986-12-02 UTC)

Documentation

Showing up to 5 results
|